This is the latest recevied weather packets stored in our database for station/object YD2UMH-10. If no packets are shown the sender has not sent any weather packets the latest 1 day(s).
| Time | Temp. | Humidity | Pressure | Rain* | Wind** | Luminosity | Snow |
|---|---|---|---|---|---|---|---|
| 1778061039 | 31.11° C | 99% | 988 hPa | - | 0 m/s | 0 W/m² | - |
| 1778060717 | 31.67° C | 99% | 987 hPa | - | 0 m/s | 0 W/m² | - |
| 1778060395 | 31.67° C | 99% | 987 hPa | - | 0 m/s | 0 W/m² | - |
| 1778060073 | 32.22° C | 99% | 987 hPa | - | 0 m/s | 0 W/m² | - |
| 1778059751 | 32.78° C | 99% | 987 hPa | - | 0 m/s | 0 W/m² | - |
| 1778059429 | 32.78° C | 99% | 987 hPa | - | 0 m/s | 0 W/m² | - |
| 1778059107 | 32.78° C | 99% | 987 hPa | - | 0 m/s | 0 W/m² | - |
| 1778058785 | 32.78° C | 99% | 987 hPa | - | 0 m/s | 0 W/m² | - |
| 1778058463 | 33.33° C | 99% | 987 hPa | - | 0 m/s | 0 W/m² | - |
| 1778058141 | 33.33° C | 99% | 987 hPa | - | 0 m/s | 0 W/m² | - |
| 1778057819 | 33.89° C | 99% | 987 hPa | - | 0 m/s | 0 W/m² | - |
| 1778057497 | 33.33° C | 99% | 987 hPa | - | 0 m/s | 0 W/m² | - |
| 1778057175 | 33.33° C | 99% | 987 hPa | - | 0 m/s | 0 W/m² | - |
| 1778056853 | 34.44° C | 99% | 987 hPa | - | 0 m/s | 0 W/m² | - |
| 1778056531 | 34.44° C | 99% | 987 hPa | - | 0 m/s | 0 W/m² | - |
| 1778056209 | 34.44° C | 99% | 987 hPa | - | 0 m/s | 0 W/m² | - |
| 1778055887 | 36.11° C | 99% | 987 hPa | - | 0 m/s | 0 W/m² | - |
| 1778055565 | 37.22° C | 99% | 987 hPa | - | 0 m/s | 0 W/m² | - |
| 1778055242 | 38.89° C | 80% | 987 hPa | - | 0 m/s | 0 W/m² | - |
| 1778054920 | 38.33° C | 72% | 987 hPa | - | 0 m/s | 0 W/m² | - |
| 1778054598 | 40° C | 66% | 987 hPa | - | 0 m/s | 0 W/m² | - |
| 1778054276 | 38.89° C | 70% | 987 hPa | - | 0 m/s | 0 W/m² | - |
| 1778053954 | 37.22° C | 73% | 987 hPa | - | 0 m/s | 0 W/m² | - |
| 1778053633 | 39.44° C | 67% | 987 hPa | - | 0 m/s | 0 W/m² | - |
| 1778053311 | 40.56° C | 65% | 987 hPa | - | 0 m/s | 0 W/m² | - |
* Rain since midnight (hover to see other rain measurements)
** Current wind speed in m/s (hover to see current wind gust speed)